Weather History for Mansfield, OH

Change the Weather History Date:

Monday, December 10, 2012

  Actual Average Record
Temperature  
Mean Temperature 44 °F 31 °F  
Max Temperature 56 °F 38 °F 68 °F (1971)
Min Temperature 32 °F 24 °F -17 °F (1958)
Degree Days  
Heating Degree Days 21 34  
Month to date heating degree days 194 322  
Since 1 July heating degree days 1523 1603  
Cooling Degree Days 0 0  
Month to date cooling degree days 0 0  
Year to date cooling degree days 955 632  
Moisture  
Dew Point 39 °F    
Average Humidity 88    
Maximum Humidity 100    
Minimum Humidity 76    
Precipitation  
Precipitation 0.22 in 0.11 in 1.09 in (1966)
Month to date precipitation 1.70 1.11  
Year to date precipitation 38.00 42.01  
Snow  
Snow T in 0.30 in - ()
Month to date snowfall T 2.6  
Since 1 July snowfall 2.6 5.3  
Snow Depth 0.00 in    
Sea Level Pressure  
Sea Level Pressure 29.69 in    
Wind  
Wind Speed 9 mph (West)    
Max Wind Speed 18 mph    
Max Gust Speed 25 mph    
Visibility 6 miles    
Events Fog , Rain    
T = Trace of Precipitation, MM = Missing Value Source: NWS Daily Summary

Daily Weather History Graph

Daily Weather History Graph

Search for Another Location

Airport:

Trip Planner

Search our weather history database for the weather conditions in past years. The results will help you decide how hot, cold, wet, or windy it might be!

Date:

Astronomy

Dec. 10, 2012 Rise Set
Actual Time 7:43 AM EST 5:02 PM EST
Civil Twilight 7:12 AM EST 5:33 PM EST
Nautical Twilight 6:38 AM EST 6:07 PM EST
Astronomical Twilight 6:05 AM EST 6:40 PM EST
Moon 4:25 AM EST (12/10) 2:51 PM EST (12/10)
Length of Visible Light 10h 20m
Length of Day
9h 18m
Waning Crescent, 10% of the Moon is Illuminated
Dec 10
Waning Crescent
Dec 13
New
Dec 20
First Quarter
Dec 28
Full
Jan 4
Last Quarter

Hourly Weather History & Observations

Time (EST) Temp. Windchill Dew Point Humidity Pressure Visibility Wind Dir Wind Speed Gust Speed Precip Events Conditions
12:52 AM 55.9 °F - 54.0 °F 93% 29.65 in 8.0 mi South 15.0 mph - 0.15 in Rain Light Rain
1:52 AM 54.0 °F - 52.0 °F 93% 29.62 in 10.0 mi SSW 16.1 mph 21.9 mph 0.05 in   Overcast
2:33 AM 53.6 °F - 53.6 °F 100% 29.62 in 10.0 mi SSW 16.1 mph - N/A   Overcast
2:52 AM 54.0 °F - 53.1 °F 97% 29.64 in 9.0 mi SW 12.7 mph - N/A   Overcast
3:07 AM 53.6 °F - 53.6 °F 100% 29.63 in 8.0 mi SW 13.8 mph 18.4 mph 0.00 in Rain Light Rain
3:52 AM 50.0 °F - 48.9 °F 96% 29.64 in 4.0 mi West 12.7 mph 17.3 mph 0.01 in   Overcast
4:32 AM 48.2 °F - 48.2 °F 100% 29.64 in 3.0 mi West 8.1 mph - 0.01 in   Overcast
4:52 AM 48.0 °F - 48.0 °F 100% 29.65 in 4.0 mi West 8.1 mph - 0.01 in   Overcast
5:12 AM 46.4 °F 42.4 °F 46.4 °F 100% 29.65 in 2.5 mi West 8.1 mph - N/A   Overcast
5:27 AM 46.4 °F 43.5 °F 46.4 °F 100% 29.64 in 4.0 mi West 5.8 mph - 0.01 in   Overcast
5:45 AM 46.4 °F 44.3 °F 46.4 °F 100% 29.64 in 6.0 mi WSW 4.6 mph - 0.01 in   Overcast
5:52 AM 46.9 °F - 46.0 °F 97% 29.65 in 7.0 mi SW 5.8 mph - 0.01 in   Overcast
6:52 AM 46.9 °F - 46.0 °F 97% 29.65 in 7.0 mi WSW 8.1 mph - 0.00 in   Overcast
7:52 AM 46.0 °F 41.9 °F 45.0 °F 96% 29.65 in 5.0 mi West 8.1 mph - N/A   Overcast
8:34 AM 42.8 °F 37.0 °F 42.8 °F 100% 29.66 in 1.8 mi West 10.4 mph - N/A   Overcast
8:52 AM 42.1 °F 35.7 °F 42.1 °F 100% 29.68 in 1.0 mi West 11.5 mph - N/A   Overcast
8:59 AM 41.0 °F 33.5 °F 41.0 °F 100% 29.67 in 0.8 mi West 13.8 mph 19.6 mph N/A   Overcast
9:13 AM 41.0 °F 34.3 °F 41.0 °F 100% 29.67 in 1.0 mi West 11.5 mph 17.3 mph N/A   Overcast
9:28 AM 41.0 °F 35.2 °F 41.0 °F 100% 29.67 in 3.0 mi West 9.2 mph 19.6 mph N/A   Overcast
9:34 AM 41.0 °F 33.9 °F 41.0 °F 100% 29.67 in 1.8 mi West 12.7 mph 19.6 mph N/A   Overcast
9:43 AM 39.2 °F 32.0 °F 39.2 °F 100% 29.67 in 0.5 mi West 11.5 mph 18.4 mph N/A Fog Fog
9:52 AM 39.0 °F 33.4 °F 39.0 °F 100% 29.68 in 1.5 mi West 8.1 mph 17.3 mph N/A   Overcast
10:02 AM 39.2 °F 31.6 °F 39.2 °F 100% 29.67 in 2.5 mi West 12.7 mph 17.3 mph N/A   Overcast
10:09 AM 39.2 °F 33.0 °F 39.2 °F 100% 29.67 in 4.0 mi West 9.2 mph - N/A   Overcast
10:41 AM 39.2 °F 33.0 °F 39.2 °F 100% 29.67 in 2.0 mi West 9.2 mph 17.3 mph N/A   Overcast
10:49 AM 39.2 °F 33.0 °F 39.2 °F 100% 29.67 in 1.8 mi West 9.2 mph 17.3 mph N/A   Overcast
10:52 AM 39.0 °F 32.8 °F 39.0 °F 100% 29.68 in 1.8 mi West 9.2 mph - N/A   Overcast
10:59 AM 37.4 °F 30.8 °F 37.4 °F 100% 29.66 in 2.5 mi WNW 9.2 mph 16.1 mph N/A   Overcast
11:10 AM 37.4 °F 31.4 °F 37.4 °F 100% 29.66 in 3.0 mi WNW 8.1 mph 18.4 mph N/A   Overcast
11:30 AM 37.4 °F 30.8 °F 35.6 °F 93% 29.65 in 8.0 mi West 9.2 mph - N/A   Overcast
11:43 AM 37.4 °F 32.8 °F 35.6 °F 93% 29.65 in 9.0 mi West 5.8 mph - N/A   Overcast
11:52 AM 37.9 °F 30.9 °F 35.1 °F 89% 29.66 in 10.0 mi WNW 10.4 mph - N/A   Overcast
12:09 PM 37.4 °F 31.4 °F 33.8 °F 87% 29.65 in 10.0 mi West 8.1 mph 18.4 mph N/A   Overcast
12:52 PM 37.9 °F 30.9 °F 34.0 °F 86% 29.67 in 10.0 mi WNW 10.4 mph - N/A   Overcast
1:02 PM 37.4 °F 30.8 °F 33.8 °F 87% 29.66 in 10.0 mi WNW 9.2 mph 19.6 mph N/A   Overcast
1:52 PM 37.9 °F 31.5 °F 33.1 °F 83% 29.66 in 10.0 mi WNW 9.2 mph 18.4 mph N/A   Overcast
2:16 PM 37.4 °F 31.4 °F 33.8 °F 87% 29.65 in 10.0 mi West 8.1 mph - N/A   Overcast
2:30 PM 37.4 °F 32.1 °F 33.8 °F 87% 29.65 in 10.0 mi West 6.9 mph - N/A   Overcast
2:52 PM 37.0 °F 30.4 °F 32.0 °F 82% 29.67 in 10.0 mi West 9.2 mph - N/A   Overcast
3:52 PM 37.4 °F 32.1 °F 30.2 °F 75% 29.68 in 10.0 mi West 6.9 mph - N/A   Overcast
4:03 PM 37.4 °F 32.1 °F 30.2 °F 75% 29.70 in 10.0 mi West 6.9 mph - N/A   Overcast
4:52 PM 37.0 °F 31.6 °F 30.9 °F 79% 29.72 in 10.0 mi West 6.9 mph - N/A   Overcast
5:52 PM 36.0 °F 29.6 °F 30.9 °F 82% 29.74 in 10.0 mi West 8.1 mph - N/A   Overcast
6:52 PM 35.1 °F 30.1 °F 32.0 °F 89% 29.75 in 9.0 mi WSW 5.8 mph - N/A   Partly Cloudy
7:08 PM 35.6 °F 29.9 °F 33.8 °F 93% 29.73 in 8.0 mi West 6.9 mph - N/A   Mostly Cloudy
7:25 PM 35.6 °F 29.2 °F 32.0 °F 87% 29.74 in 7.0 mi West 8.1 mph - N/A   Overcast
7:52 PM 34.0 °F 27.2 °F 32.0 °F 92% 29.78 in 6.0 mi West 8.1 mph - N/A   Overcast
8:52 PM 33.1 °F 25.5 °F 32.0 °F 96% 29.80 in 4.0 mi West 9.2 mph - N/A   Overcast
9:43 PM 33.8 °F 25.8 °F 33.8 °F 100% 29.80 in 3.0 mi West 10.4 mph 17.3 mph N/A   Overcast
9:52 PM 33.1 °F 25.5 °F 32.0 °F 96% 29.83 in 2.5 mi West 9.2 mph 18.4 mph N/A   Overcast
10:21 PM 32.0 °F 23.0 °F 30.2 °F 93% 29.81 in 3.0 mi NNW 11.5 mph - 0.01 in Rain Light Freezing Rain
10:29 PM 32.0 °F 24.8 °F 32.0 °F 100% 29.82 in 4.0 mi NW 8.1 mph - 0.01 in Rain Light Freezing Rain
10:52 PM 32.0 °F 25.6 °F 32.0 °F 100% 29.86 in 3.0 mi NW 6.9 mph - 0.02 in Rain Light Freezing Rain
11:37 PM 32.0 °F 26.4 °F 30.2 °F 93% 29.84 in 8.0 mi NW 5.8 mph - 0.00 in Rain Light Freezing Rain
11:52 PM 32.0 °F 27.5 °F 30.9 °F 96% 29.88 in 9.0 mi WNW 4.6 mph - 0.00 in   Overcast